Location: Waco, TX
(31.5480°N, 97.1670°W)
Time: 14:51:09
(UTC-05:00)

ISS - Pass Details

Date: 18 August 2019
Orbit: 410 x 421 km, 51.6° (Epoch: 22 August)

Event Time Altitude Azimuth Distance (km) Brightness Sun altitude
Rises 17:43:42 0° 302° (WNW) 2,365 0.8 29.8°
Reaches altitude 10° 17:46:02 10° 288° (WNW) 1,498 0.4 29.3°
Maximum altitude 17:48:51 25° 231° (SW) 887 -1.0 28.7°
Drops below altitude 10° 17:51:39 10° 174° (S) 1,489 -0.9 28.1°
Sets 17:53:58 0° 161° (SSE) 2,346 -0.1 27.6°
